Overview Statistics Trail Chart Weather Telemetry Raw packets
 

This is the latest recevied weather packets stored in our database for station/object W1HVD. If no packets are shown the sender has not sent any weather packets the latest 10 day(s).

<< 51 52 53 54 55 56 57 >>
Time Temp. Humidity Pressure Rain* Wind** Luminosity Snow
1777328185 16.11° C 42% 1024.3 hPa 0 mm - 62 W/m² -
1777327883 16.67° C 42% 1024.4 hPa 0 mm - 59 W/m² -
1777327581 16.67° C 41% 1024.4 hPa 0 mm - 65 W/m² -
1777327278 17.22° C 42% 1024.5 hPa 0 mm - 102 W/m² -
1777326975 16.67° C 41% 1024.5 hPa 0 mm - 116 W/m² -
1777326673 17.22° C 40% 1024.3 hPa 0 mm - 127 W/m² -
1777326369 17.78° C 41% 1024.2 hPa 0 mm - 140 W/m² -
1777326067 17.78° C 40% 1024.4 hPa 0 mm - 154 W/m² -
1777325764 18.33° C 39% 1024.3 hPa 0 mm - 168 W/m² -
1777325462 17.78° C 41% 1024.1 hPa 0 mm - 182 W/m² -
1777325160 17.78° C 40% 1024 hPa 0 mm - 197 W/m² -
1777324856 17.78° C 40% 1024.3 hPa 0 mm - 212 W/m² -
1777324554 17.78° C 39% 1024 hPa 0 mm - 226 W/m² -
1777324251 17.78° C 39% 1024 hPa 0 mm - 242 W/m² -
1777323949 18.33° C 39% 1024 hPa 0 mm - 258 W/m² -
1777323646 17.78° C 40% 1024 hPa 0 mm - 272 W/m² -
1777323343 18.33° C 39% 1023.9 hPa 0 mm - 287 W/m² -
1777323041 18.33° C 39% 1023.9 hPa 0 mm - 302 W/m² -
1777322738 18.33° C 39% 1023.7 hPa 0 mm - 314 W/m² -
1777322437 18.33° C 40% 1023.9 hPa 0 mm - 327 W/m² -
1777322133 18.33° C 43% 1023.9 hPa 0 mm - 343 W/m² -
1777321830 18.33° C 39% 1023.6 hPa 0 mm - 358 W/m² -
1777321526 18.33° C 41% 1023.9 hPa 0 mm - 373 W/m² -
1777321224 17.78° C 43% 1023.8 hPa 0 mm - 387 W/m² -
1777320921 18.89° C 40% 1023.7 hPa 0 mm - 402 W/m² -

* Rain latest hour (hover to see other rain measurements)
** Current wind speed in m/s (hover to see current wind gust speed)